Baker Lake, Nunavut

8:29 PM CDT on March 29, 2017 (GMT -0500)
Baker Lake

Weather History for CYBK - November, 2012

Change the Weather History Date:

Tuesday, November 6, 2012

  Actual Average Record
Temperature  
Mean Temperature -1 °F -  
Max Temperature 3 °F -1 °F 28 °F (2005)
Min Temperature -5 °F -15 °F -20 °F (2003)
Degree Days  
Heating Degree Days 66    
Moisture  
Dew Point -6 °F    
Average Humidity 72    
Maximum Humidity 85    
Minimum Humidity 54    
Precipitation  
Precipitation 0.00 in 0.02 in - ()
Sea Level Pressure  
Sea Level Pressure 30.16 in    
Wind  
Wind Speed 11 mph ()    
Max Wind Speed 16 mph    
Max Gust Speed 21 mph    
Visibility 16.7 miles    
Events Snow    
Averages and records for this station are not official NWS values.
T = Trace of Precipitation, MM = Missing Value Source: Averaged Metar Reports

Daily Weather History Graph

Daily Weather History Graph

Search for Another Location

Airport or City:

Trip Planner

Search our weather history database for the weather conditions in past years. The results will help you decide how hot, cold, wet, or windy it might be!

Date:

Astronomy

Nov. 06, 2012 Rise Set
Actual Time 8:26 AM CST 3:48 PM CST
Civil Twilight 7:30 AM CST 4:44 PM CST
Nautical Twilight 6:31 AM CST 5:42 PM CST
Astronomical Twilight 5:35 AM CST 6:38 PM CST
Moon 10:57 PM CST (11/6) 1:58 PM CST (11/6)
Length of Visible Light 9h 13m
Length of Day
7h 21m
Waning Gibbous, 53% of the Moon is Illuminated
Nov 6
Waning Gibbous
Nov 6
Last Quarter
Nov 13
New
Nov 20
First Quarter
Nov 28
Full

Hourly Weather History & Observations

Time (CST) Temp. Windchill Dew Point Humidity Pressure Visibility Wind Dir Wind Speed Gust Speed Precip Events Conditions
12:00 AM 6 °F - 1 °F 71% 30.04 in 15 mi ENE 13.8 mph - -   Partly Cloudy
12:00 AM 6.8 °F -9.3 °F 1.4 °F 79% 30.04 in 15.0 mi NE 12.7 mph 20.7 mph N/A Snow Low Drifting Snow
1:00 AM 6.8 °F -8.6 °F 1.4 °F 79% 30.05 in 15.0 mi NE 11.5 mph 17.3 mph N/A Snow Low Drifting Snow
2:00 AM 6.8 °F -8.6 °F 1.4 °F 79% 30.08 in 15.0 mi NE 11.5 mph 17.3 mph N/A Snow Low Drifting Snow
3:00 AM 5.0 °F -10.8 °F 1.4 °F 85% 30.09 in 15.0 mi NE 11.5 mph 17.3 mph N/A Snow Low Drifting Snow
4:00 AM 5.0 °F -10.8 °F 1.4 °F 85% 30.11 in 15.0 mi NE 11.5 mph 17.3 mph N/A Snow Low Drifting Snow
5:00 AM 5.0 °F -10.8 °F 1.4 °F 85% 30.12 in 15.0 mi NE 11.5 mph - N/A   Overcast
6:00 AM 4 °F - -0 °F 73% 30.14 in 15 mi NE 15.0 mph - -   Mostly Cloudy
6:00 AM 3.2 °F -13.1 °F -0.4 °F 85% 30.14 in 15.0 mi NNE 11.5 mph 17.3 mph N/A   Mostly Cloudy
7:00 AM 3.2 °F -14.6 °F -2.2 °F 78% 30.15 in 15.0 mi NNE 13.8 mph - N/A   Mostly Cloudy
8:00 AM 1.4 °F -15.3 °F -9.4 °F 61% 30.17 in 20.0 mi NNE 11.5 mph 17.3 mph N/A   Scattered Clouds
9:00 AM -0.4 °F -18.4 °F -9.4 °F 66% 30.18 in 20.0 mi NE 12.7 mph - N/A   Scattered Clouds
10:00 AM -2.2 °F -22.9 °F -11.2 °F 66% 30.18 in 20.0 mi NE 16.1 mph - N/A   Partly Cloudy
11:00 AM -2.2 °F -20.7 °F -11.2 °F 66% 30.19 in 20.0 mi NE 12.7 mph - N/A   Partly Cloudy
12:00 PM -3 °F - -11 °F 55% 30.19 in 19 mi NE 12.7 mph - -   Scattered Clouds
12:00 PM -2.2 °F -20.7 °F -11.2 °F 66% 30.19 in 20.0 mi NE 12.7 mph - N/A   Partly Cloudy
1:00 PM -0.4 °F -14.7 °F -9.4 °F 66% 30.19 in 20.0 mi NE 8.1 mph - N/A   Partly Cloudy
2:00 PM -2.2 °F -22.9 °F -9.4 °F 71% 30.20 in 20.0 mi NNE 16.1 mph - N/A   Partly Cloudy
3:00 PM -2.2 °F -20.7 °F -11.2 °F 66% 30.21 in 20.0 mi North 12.7 mph - N/A   Scattered Clouds
4:00 PM -4.0 °F -23.0 °F -13.0 °F 65% 30.22 in 20.0 mi NNE 12.7 mph - N/A   Scattered Clouds
5:00 PM -4.0 °F -20.2 °F -13.0 °F 65% 30.22 in 15.0 mi NNE 9.2 mph - N/A   Scattered Clouds
6:00 PM -5 °F - -13 °F 54% 30.21 in 15 mi North 8.1 mph - -   Scattered Clouds
6:00 PM -5.8 °F -21.2 °F -13.0 °F 71% 30.21 in 15.0 mi North 8.1 mph - N/A   Mostly Cloudy
7:00 PM -4.0 °F -19.0 °F -11.2 °F 71% 30.20 in 15.0 mi NNE 8.1 mph - N/A   Overcast
8:00 PM -2.2 °F -16.8 °F -9.4 °F 71% 30.19 in 15.0 mi North 8.1 mph - N/A   Overcast
9:00 PM -0.4 °F -13.4 °F -5.8 °F 78% 30.18 in 15.0 mi North 6.9 mph - N/A   Overcast
10:00 PM 1.4 °F -13.5 °F -4.0 °F 78% 30.17 in 15.0 mi North 9.2 mph - N/A   Overcast
11:00 PM 3.2 °F -13.1 °F -0.4 °F 85% 30.17 in 15.0 mi NNE 11.5 mph - N/A Snow Light Snow